QLK521 YBWW-YSSY

Flight info

Callsign QLK521
Flight time N/A
Altitude 19000
Route UPMOG Q872 ALDAR/N0453F340 DCT ADMAR H91 IGDAM/N0457F350 DCT BOREE BORE4A/25
Aircraft A320/M-SDE3FGHIRWY/LB1

Departure

Time N/A
Airport Toowoomba Wellcamp Airport (YBWW)

Arrival

Time 2026-05-07 07:16
Airport Sydney Kingsford Smith International Airport (YSSY)
Time Latitude Longitude Altitude Speed Heading
2026-05-07 07:08 -33.77803 151.53378 3018 ft 183 kts 226°
2026-05-07 07:08 -33.78709 151.52322 3010 ft 181 kts 227°
2026-05-07 07:08 -33.79597 151.51250 3011 ft 180 kts 228°
2026-05-07 07:08 -33.80455 151.50167 3005 ft 181 kts 229°
2026-05-07 07:09 -33.81316 151.49046 3008 ft 184 kts 230°
2026-05-07 07:09 -33.82158 151.47928 3007 ft 175 kts 230°
2026-05-07 07:09 -33.82939 151.46871 3007 ft 165 kts 231°
2026-05-07 07:09 -33.83699 151.45829 3009 ft 167 kts 231°
2026-05-07 07:10 -33.84452 151.44786 3007 ft 166 kts 231°
2026-05-07 07:10 -33.85209 151.43730 3016 ft 168 kts 231°
2026-05-07 07:10 -33.85947 151.42697 3038 ft 155 kts 232°
2026-05-07 07:10 -33.86656 151.41701 3019 ft 156 kts 231°
2026-05-07 07:11 -33.87368 151.40703 3027 ft 160 kts 231°
2026-05-07 07:11 -33.88088 151.39689 3023 ft 158 kts 231°
2026-05-07 07:11 -33.88810 151.38669 3027 ft 160 kts 231°
2026-05-07 07:11 -33.89354 151.37523 3029 ft 160 kts 252°
2026-05-07 07:12 -33.89644 151.36223 2953 ft 162 kts 251°
2026-05-07 07:12 -33.89964 151.34936 2782 ft 158 kts 251°
2026-05-07 07:12 -33.90267 151.33687 2587 ft 152 kts 251°
2026-05-07 07:12 -33.90553 151.32491 2389 ft 146 kts 252°
2026-05-07 07:13 -33.90825 151.31351 2196 ft 138 kts 253°
2026-05-07 07:13 -33.91084 151.30264 2011 ft 134 kts 254°
2026-05-07 07:13 -33.91337 151.29199 1829 ft 131 kts 252°
2026-05-07 07:13 -33.91588 151.28143 1661 ft 132 kts 252°
2026-05-07 07:14 -33.91841 151.27075 1478 ft 133 kts 252°
2026-05-07 07:14 -33.92091 151.26016 1297 ft 130 kts 251°
2026-05-07 07:14 -33.92329 151.24974 1120 ft 130 kts 250°
2026-05-07 07:14 -33.92579 151.23927 964 ft 130 kts 254°
2026-05-07 07:15 -33.92828 151.22888 767 ft 130 kts 254°
2026-05-07 07:15 -33.93080 151.21819 577 ft 134 kts 253°
2026-05-07 07:15 -33.93332 151.20768 369 ft 131 kts 255°
2026-05-07 07:15 -33.93579 151.19722 199 ft 128 kts 256°
2026-05-07 07:16 -33.93824 151.18690 34 ft 128 kts 255°
2026-05-07 07:16 -33.94016 151.17879 22 ft 61 kts 254°
2026-05-07 07:16 -33.94050 151.17681 22 ft 14 kts 292°
2026-05-07 07:16 -33.93948 151.17623 19 ft 11 kts 348°
2026-05-07 07:17 -33.93937 151.17620 19 ft 0 kts 348°
2026-05-07 07:17 -33.93915 151.17615 19 ft 7 kts 348°
2026-05-07 07:17 -33.93846 151.17598 18 ft 13 kts 348°
2026-05-07 07:17 -33.93740 151.17571 19 ft 17 kts 347°
2026-05-07 07:18 -33.93615 151.17536 17 ft 22 kts 347°